This is the latest recevied weather packets stored in our database for station/object KC0RPY. If no packets are shown the sender has not sent any weather packets the latest 1 day(s).
| Time | Temp. | Humidity | Pressure | Rain* | Wind** | Luminosity | Snow |
|---|---|---|---|---|---|---|---|
| 1778090471 | 12.78° C | 40% | 1019.8 hPa | 0 mm | - | 393 W/m² | - |
| 1778089258 | 12.78° C | 42% | 1020.2 hPa | 0 mm | - | 285 W/m² | - |
| 1778088956 | 12.78° C | 43% | 1020.2 hPa | 0 mm | - | 287 W/m² | - |
| 1778088350 | 13.33° C | 44% | 1020.5 hPa | 0 mm | - | 347 W/m² | - |
| 1778088046 | 12.78° C | 40% | 1020.2 hPa | 0 mm | - | 375 W/m² | - |
| 1778087138 | 13.89° C | 44% | 1020.2 hPa | 0 mm | - | 514 W/m² | - |
| 1778086224 | 12.22° C | 45% | 1020.5 hPa | 0 mm | - | 457 W/m² | - |
| 1778085921 | 12.22° C | 44% | 1020.5 hPa | 0 mm | - | 415 W/m² | - |
| 1778084707 | 12.78° C | 46% | 1020.2 hPa | 0 mm | - | 399 W/m² | - |
| 1778084404 | 12.22° C | 47% | 1020.5 hPa | 0 mm | - | 404 W/m² | - |
| 1778083496 | 12.22° C | 45% | 1019.8 hPa | 0 mm | - | 385 W/m² | - |
| 1778081777 | 12.22° C | 48% | 1019.8 hPa | 0 mm | - | 415 W/m² | - |
| 1778080264 | 12.78° C | 55% | 1019.5 hPa | 0 mm | - | 666 W/m² | - |
| 1778079961 | 12.22° C | 57% | 1019.5 hPa | 0 mm | - | 637 W/m² | - |
| 1778079052 | 11.11° C | 57% | 1019.5 hPa | 0 mm | - | 561 W/m² | - |
| 1778077539 | 11.11° C | 61% | 1019.8 hPa | 0 mm | - | 488 W/m² | - |
| 1778076027 | 10.56° C | 60% | 1019.1 hPa | 0 mm | - | 325 W/m² | - |
| 1778073601 | 10° C | 71% | 1019.1 hPa | 0 mm | - | 145 W/m² | - |
| 1778071482 | 8.33° C | 81% | 1018.5 hPa | 0 mm | - | 53 W/m² | - |
| 1778069970 | 8.33° C | 84% | 1018.1 hPa | 0 mm | - | 48 W/m² | - |
| 1778068456 | 7.78° C | 83% | 1017 hPa | 0 mm | - | 11 W/m² | - |
| 1778067550 | 7.78° C | 84% | 1016.7 hPa | 0 mm | - | 7 W/m² | - |
| 1778067247 | 7.78° C | 84% | 1017 hPa | 0 mm | - | 7 W/m² | - |
| 1778063311 | 7.22° C | 89% | 1018.1 hPa | 0 mm | - | 0 W/m² | - |
| 1778062706 | 7.22° C | 91% | 1018.5 hPa | 0 mm | - | 0 W/m² | - |
* Rain latest hour (hover to see other rain measurements)
** Current wind speed in m/s (hover to see current wind gust speed)